Location: ?
(35.4554°N, 139.3092°E)
Time: 21:28:40
(UTC+00:00)

Spot 4 Rocket - Pass Details

Date: 21 April 2021
Orbit: 776 x 781 km, 98.7° (Epoch: 10 May)

Event Time Altitude Azimuth Distance (km) Brightness Sun altitude
Rises 18:24:17 0° 9° (N) 3,270 7.9 -19.1°
Reaches altitude 10° 18:26:38 10° 7° (N) 2,338 7.0 -18.7°
Maximum altitude 18:31:43 65° 286° (WNW) 855 4.0 -17.8°
Enters shadow 18:34:42 25° 211° (SSW) 1,532 5.1 -17.2°
